CW4635 Weather Reports


time (UTC)temp
F
wind
direction
speed
knots
gust
knots
rain 1hr
in
rain 24hr
in
rain mn
in
humidity
%
barometer
mb
20220124104518 39 271 0.0 2.6 0.00 0.00 0.00 96 1025.7
20220124103016 39 263 0.0 3.5 0.00 0.00 0.00 96 1025.6
20220124101535 39 236 1.7 3.5 0.00 0.00 0.00 96 1025.5
20220124100035 39 275 0.9 3.5 0.00 0.00 0.00 96 1025.8
20220124094551 39 349 0.9 2.6 0.00 0.00 0.00 96 1026.0
20220124093047 39 312 0.0 3.5 0.00 0.00 0.00 96 1025.8
20220124091514 39 348 0.9 5.2 0.00 0.00 0.00 96 1026.2
20220124090010 39 348 0.0 4.3 0.00 0.00 0.00 96 1026.2
20220124084507 39 5 1.7 5.2 0.00 0.00 0.00 96 1026.3
20220124083015 39 347 0.9 4.3 0.00 0.00 0.00 96 1026.2
20220124081511 39 5 2.6 5.2 0.00 0.00 0.00 96 1026.3
20220124080141 39 344 1.7 5.2 0.00 0.00 0.00 96 1026.3
20220124074622 38 346 1.7 5.2 0.00 0.00 0.00 96 1026.2
20220124073141 38 234 0.9 4.3 0.00 0.00 0.00 96 1026.1
20220124071649 38 278 1.7 5.2 0.00 0.00 0.00 96 1026.3
20220124070139 38 302 1.7 4.3 0.00 0.00 0.00 96 1026.3
20220124064628 38 284 0.9 3.5 0.00 0.00 0.00 96 1026.3
20220124063214 38 292 0.9 2.6 0.00 0.00 0.00 96 1026.2
20220124061734 38 247 0.0 3.5 0.00 0.00 0.00 96 1026.0
20220124060130 38 232 0.9 3.5 0.00 0.00 0.00 96 1026.1
20220124054644 38 257 1.7 3.5 0.00 0.00 0.00 96 1026.7
20220124053137 38 265 1.7 3.5 0.00 0.00 0.00 96 1026.8
20220124051636 38 234 1.7 4.3 0.00 0.00 0.00 96 1026.8
20220124050114 38 242 1.7 3.5 0.00 0.00 0.00 96 1026.8
20220124044724 38 296 0.9 4.3 0.00 0.00 0.00 96 1027.1
20220124043123 38 298 0.9 3.5 0.00 0.00 0.00 96 1027.2
20220124041644 38 293 0.9 2.6 0.00 0.00 0.00 96 1027.1
20220124040209 38 321 0.9 6.1 0.00 0.00 0.00 96 1027.3
20220124034714 38 355 2.6 7.8 0.00 0.00 0.00 96 1027.3
20220124033207 38 337 3.5 6.1 0.00 0.00 0.00 96 1027.3
20220124031819 38 355 0.9 3.5 0.00 0.00 0.00 96 1027.3
20220124030138 38 331 2.6 8.7 0.00 0.00 0.00 96 1027.2
20220124024722 38 355 1.7 7.8 0.00 0.00 0.00 96 1027.2
20220124023213 38 360 1.7 6.1 0.00 0.00 0.00 96 1027.2
20220124021552 38 26 1.7 5.2 0.00 0.00 0.00 96 1027.1
20220124020120 38 328 0.0 3.5 0.00 0.00 0.00 96 1027.3
20220124014650 38 36 0.0 2.6 0.00 0.00 0.00 96 1027.3
20220124013100 38 5 0.0 2.6 0.00 0.00 0.00 96 1027.3
20220124011614 38 355 0.0 1.7 0.00 0.00 0.00 96 1027.3
20220124010116 38 355 0.0 2.6 0.00 0.00 0.00 96 1027.3
20220124004631 38 21 0.9 5.2 0.00 0.00 0.00 96 1027.4
20220124003113 39 31 1.7 4.3 0.00 0.00 0.00 96 1027.6
20220124001653 39 25 1.7 5.2 0.00 0.00 0.00 96 1027.5
20220124000133 39 355 1.7 4.3 0.00 0.00 0.00 96 1027.7
20220123234615 39 308 2.6 7.0 0.00 0.00 0.00 96 1027.8
20220123233116 39 360 2.6 7.8 0.00 0.00 0.00 97 1027.8
20220123231613 39 17 4.3 7.8 0.00 0.00 0.00 96 1027.8
20220123230048 39 344 4.3 8.7 0.00 0.00 0.00 97 1027.8
20220123224645 39 343 4.3 9.6 0.00 0.00 0.00 97 1027.8
20220123223100 39 360 3.5 7.0 0.00 0.00 0.00 97 1027.7
20220123221602 39 19 1.7 6.1 0.00 0.00 0.00 97 1027.6
20220123220038 39 355 3.5 8.7 0.00 0.00 0.00 97 1027.7
20220123214554 38 355 2.6 6.1 0.00 0.00 0.00 97 1027.8
20220123213034 38 350 2.6 5.2 0.00 0.00 0.00 97 1027.8
20220123211629 38 323 1.7 2.6 0.00 0.00 0.00 97 1027.8
20220123210035 38 360 0.0 1.7 0.00 0.00 0.00 97 1027.8
20220123204536 38 360 0.9 2.6 0.00 0.00 0.00 97 1028.3
20220123203116 38 338 0.0 2.6 0.00 0.00 0.00 97 1028.4
20220123201528 37 355 2.6 4.3 0.00 0.00 0.00 97 1028.6
20220123200109 38 344 0.9 4.3 0.00 0.00 0.00 97 1028.9
20220123194549 37 351 2.6 5.2 0.00 0.00 0.00 97 1029.3
20220123193105 37 18 1.7 5.2 0.00 0.00 0.00 97 1029.5
20220123191605 37 360 2.6 6.1 0.00 0.00 0.00 97 1029.8
20220123190027 37 15 2.6 5.2 0.00 0.00 0.00 97 1029.9
20220123184526 37 336 3.5 6.1 0.00 0.00 0.00 97 1029.8
20220123183105 37 348 3.5 6.1 0.00 0.00 0.00 97 1030.0
20220123181526 36 355 2.6 6.1 0.00 0.00 0.00 97 1029.9
20220123180022 36 310 4.3 7.0 0.00 0.00 0.00 97 1029.9
20220123174531 36 26 2.6 6.1 0.00 0.00 0.00 97 1029.9
20220123173111 36 299 1.7 5.2 0.00 0.00 0.00 97 1030.0
20220123171533 36 324 1.7 4.3 0.00 0.00 0.00 97 1029.9
20220123170032 36 317 0.9 6.1 0.00 0.00 0.00 97 1030.0
20220123164522 36 309 2.6 5.2 0.00 0.00 0.00 97 1030.2
20220123163040 36 326 1.7 5.2 0.00 0.00 0.00 97 1030.2
20220123161518 36 335 1.7 6.1 0.00 0.00 0.00 97 1030.2
20220123160024 36 330 0.9 5.2 0.00 0.00 0.00 97 1030.2
20220123154543 36 5 2.6 7.0 0.00 0.00 0.00 97 1030.2
20220123153106 36 306 1.7 6.1 0.00 0.00 0.00 97 1030.0
20220123151519 35 330 2.6 5.2 0.00 0.00 0.00 97 1030.3
20220123150029 35 350 2.6 7.0 0.00 0.00 0.00 97 1030.0
20220123144510 35 299 1.7 5.2 0.00 0.00 0.00 97 1029.9
20220123143009 35 283 2.6 6.1 0.00 0.00 0.00 97 1029.9
20220123141529 35 355 1.7 3.5 0.00 0.00 0.00 97 1029.9
20220123140019 35 301 2.6 7.0 0.00 0.00 0.00 97 1029.9
20220123134504 35 360 1.7 5.2 0.00 0.00 0.00 96 1029.9
20220123133003 36 350 2.6 5.2 0.00 0.00 0.00 97 1029.9
20220123131511 36 355 1.7 6.1 0.00 0.00 0.00 96 1029.8
20220123130343 36 319 1.7 4.3 0.00 0.00 0.00 97 1029.8
20220123124733 36 346 2.6 6.1 0.00 0.00 0.00 97 1030.1
20220123123110 36 350 1.7 7.0 0.00 0.00 0.00 97 1030.2
20220123121701 36 319 0.9 5.2 0.00 0.00 0.00 96 1030.1
20220123120217 36 344 1.7 5.2 0.00 0.00 0.00 97 1030.3
20220123114603 36 329 1.7 5.2 0.00 0.00 0.00 96 1030.4
20220123113139 37 344 2.6 6.1 0.00 0.00 0.00 96 1030.4
20220123111555 37 342 2.6 7.0 0.00 0.00 0.00 96 1030.4
20220123110235 37 345 1.7 5.2 0.00 0.00 0.00 96 1030.4